Avalon, Australia

7:24 PM AEST on April 27, 2017 (GMT +1000)
Avalon

Weather History for YMAV - May, 2013

Change the Weather History Date:

Thursday, May 16, 2013

  Actual Average Record
Temperature  
Mean Temperature 54 °F -  
Max Temperature 60 °F - - ()
Min Temperature 48 °F - - ()
Degree Days  
Heating Degree Days 11    
Growing Degree Days 4 (Base 50)    
Moisture  
Dew Point 48 °F    
Average Humidity 84    
Maximum Humidity 94    
Minimum Humidity 72    
Precipitation  
Precipitation 0.16 in - - ()
Sea Level Pressure  
Sea Level Pressure 29.76 in    
Wind  
Wind Speed 18 mph ()    
Max Wind Speed 24 mph    
Max Gust Speed 33 mph    
Visibility 6.2 miles    
Events Rain    
T = Trace of Precipitation, MM = Missing Value Source: Averaged Metar Reports

Daily Weather History Graph

Daily Weather History Graph

Search for Another Location

Airport or City:

Trip Planner

Search our weather history database for the weather conditions in past years. The results will help you decide how hot, cold, wet, or windy it might be!

Date:

Astronomy

May. 16, 2013 Rise Set
Actual Time 7:16 AM AEST 5:20 PM AEST
Civil Twilight 6:48 AM AEST 5:48 PM AEST
Nautical Twilight 6:16 AM AEST 6:20 PM AEST
Astronomical Twilight 5:45 AM AEST 6:51 PM AEST
Moon 11:45 AM AEST (5/16) 10:32 PM AEST (5/16)
Length of Visible Light 10h 59m
Length of Day
10h 03m
Waxing Crescent, 30% of the Moon is Illuminated
May 16
Waxing Crescent
May 18
First Quarter
May 25
Full
Jun 1
Last Quarter
Jun 9
New

Hourly Weather History & Observations

Time (AEST) Temp. Dew Point Humidity Pressure Visibility Wind Dir Wind Speed Gust Speed Precip Events Conditions
12:00 AM 53 °F 48 °F 78% 29.68 in - WNW 21.9 mph - -  
12:00 AM 53.6 °F 48.2 °F 82% 29.65 in 6.2 mi WNW 21.9 mph - N/A   Drizzle
12:30 AM 50.0 °F 44.6 °F 82% 29.65 in 6.2 mi WNW 21.9 mph - N/A Rain Light Rain
1:00 AM 50.0 °F 46.4 °F 87% 29.65 in 6.2 mi WNW 21.9 mph - N/A Rain Light Rain Showers
1:30 AM 50.0 °F 46.4 °F 87% 29.65 in 6.2 mi NW 18.4 mph - N/A   Unknown
2:00 AM 51.8 °F 46.4 °F 82% 29.65 in 6.2 mi NW 19.6 mph - N/A   Mostly Cloudy
2:11 AM 51.8 °F 48.2 °F 88% 29.65 in 6.2 mi WNW 21.9 mph 33.4 mph N/A   Mostly Cloudy
2:30 AM 51.8 °F 48.2 °F 88% 29.65 in 6.2 mi WNW 20.7 mph - N/A   Overcast
3:00 AM 51 °F 46 °F 79% 29.66 in - WNW 21.9 mph - -  
3:00 AM 51.8 °F 46.4 °F 82% 29.65 in 6.2 mi WNW 21.9 mph - N/A   Scattered Clouds
3:30 AM 51.8 °F 46.4 °F 82% 29.65 in 6.2 mi WNW 21.9 mph - N/A   Mostly Cloudy
4:00 AM 51.8 °F 46.4 °F 82% 29.65 in 6.2 mi WNW 21.9 mph - N/A   Mostly Cloudy
4:29 AM 51.8 °F 46.4 °F 82% 29.65 in 6.2 mi WNW 21.9 mph 33.4 mph N/A   Mostly Cloudy
4:30 AM 51.8 °F 46.4 °F 82% 29.65 in 6.2 mi WNW 23.0 mph - N/A   Mostly Cloudy
5:00 AM 51.8 °F 46.4 °F 82% 29.65 in 6.2 mi WNW 21.9 mph - N/A Rain Light Rain Showers
5:30 AM 51.8 °F 46.4 °F 82% 29.68 in 6.2 mi WNW 19.6 mph - N/A Rain Light Rain Showers
6:00 AM 51 °F 47 °F 83% 29.68 in - WNW 20.7 mph - -   Overcast
6:00 AM 51.8 °F 48.2 °F 88% 29.68 in 6.2 mi WNW 20.7 mph - N/A Rain Light Rain Showers
6:30 AM 51.8 °F 48.2 °F 88% 29.68 in 6.2 mi WNW 21.9 mph - N/A   Mostly Cloudy
7:00 AM 51.8 °F 46.4 °F 82% 29.68 in 6.2 mi WNW 24.2 mph - N/A   Scattered Clouds
7:30 AM 51.8 °F 48.2 °F 88% 29.71 in 6.2 mi WNW 24.2 mph - N/A   Mostly Cloudy
8:00 AM 51.8 °F 48.2 °F 88% 29.71 in 6.2 mi WNW 23.0 mph - N/A   Mostly Cloudy
8:30 AM 51.8 °F 48.2 °F 88% 29.71 in 6.2 mi WNW 20.7 mph - N/A   Mostly Cloudy
9:00 AM 54 °F 49 °F 76% 29.74 in - WNW 20.7 mph - -  
9:00 AM 53.6 °F 48.2 °F 82% 29.74 in 6.2 mi WNW 20.7 mph - N/A   Mostly Cloudy
9:30 AM 55.4 °F 48.2 °F 77% 29.74 in 6.2 mi WNW 23.0 mph - N/A   Mostly Cloudy
10:00 AM 57.2 °F 50.0 °F 77% 29.74 in 6.2 mi WNW 24.2 mph - N/A   Mostly Cloudy
10:30 AM 59.0 °F 50.0 °F 72% 29.74 in 6.2 mi West 20.7 mph - N/A   Scattered Clouds
11:00 AM 59.0 °F 50.0 °F 72% 29.74 in 6.2 mi West 21.9 mph - N/A   Overcast
11:30 AM 60.8 °F 51.8 °F 72% 29.74 in 6.2 mi West 20.7 mph - N/A   Overcast
12:00 PM 57 °F 52 °F 78% 29.76 in 6 mi West 19.6 mph - -   Overcast
12:00 PM 57.2 °F 51.8 °F 82% 29.74 in 5.6 mi West 19.6 mph - N/A Rain Light Rain Showers
12:30 PM 59.0 °F 51.8 °F 77% 29.74 in 6.2 mi West 16.1 mph - N/A   Mostly Cloudy
1:00 PM 57.2 °F 51.8 °F 82% 29.77 in 6.2 mi West 20.7 mph 32.2 mph N/A Rain Light Rain Showers
1:30 PM 53.6 °F 48.2 °F 82% 29.77 in 6.2 mi WSW 19.6 mph - N/A Rain Light Rain Showers
2:00 PM 51.8 °F 48.2 °F 88% 29.80 in 6.2 mi WSW 15.0 mph - N/A Rain Light Rain
2:30 PM 51.8 °F 48.2 °F 88% 29.80 in 6.2 mi West 18.4 mph - N/A Rain Light Rain
3:00 PM 51 °F 48 °F 87% 29.80 in - West 10.4 mph - -   Overcast
3:00 PM 51.8 °F 48.2 °F 88% 29.80 in 6.2 mi West 10.4 mph - N/A Rain Light Rain
3:30 PM 51.8 °F 48.2 °F 88% 29.80 in 6.2 mi WNW 11.5 mph - N/A   Overcast
4:00 PM 53.6 °F 50.0 °F 88% 29.80 in 6.2 mi NW 11.5 mph - N/A   Scattered Clouds
4:30 PM 53.6 °F 50.0 °F 88% 29.80 in 6.2 mi WNW 13.8 mph - N/A   Scattered Clouds
5:00 PM 53.6 °F 50.0 °F 88% 29.83 in 6.2 mi WNW 10.4 mph - N/A   Scattered Clouds
5:30 PM 53.6 °F 50.0 °F 88% 29.83 in 6.2 mi West 12.7 mph - N/A Rain Light Rain
6:00 PM 53 °F 49 °F 82% 29.85 in - West 10.4 mph - -  
6:00 PM 51.8 °F 50.0 °F 94% 29.83 in 6.2 mi West 10.4 mph - N/A   Mostly Cloudy
6:30 PM 51.8 °F 48.2 °F 88% 29.86 in 6.2 mi West 11.5 mph - N/A   Mostly Cloudy
7:00 PM 51.8 °F 48.2 °F 88% 29.86 in 6.2 mi West 12.7 mph - N/A   Scattered Clouds
7:30 PM 51.8 °F 46.4 °F 82% 29.89 in 6.2 mi West 10.4 mph - N/A   Mostly Cloudy
8:00 PM 50.0 °F 48.2 °F 94% 29.89 in 6.2 mi West 8.1 mph - N/A   Scattered Clouds
8:30 PM 50.0 °F 48.2 °F 94% 29.89 in 6.2 mi West 6.9 mph - N/A   Mostly Cloudy
9:00 PM 50 °F 47 °F 85% 29.90 in - West 10.4 mph - -  
9:00 PM 50.0 °F 46.4 °F 87% 29.89 in 6.2 mi West 10.4 mph - N/A   Scattered Clouds
9:30 PM 50.0 °F 46.4 °F 87% 29.89 in 6.2 mi WNW 11.5 mph - N/A   Unknown
10:00 PM 50.0 °F 46.4 °F 87% 29.89 in 6.2 mi West 13.8 mph - N/A   Scattered Clouds
10:30 PM 50.0 °F 48.2 °F 94% 29.89 in 6.2 mi West 13.8 mph - N/A   Overcast
11:00 PM 50.0 °F 46.4 °F 87% 29.89 in 6.2 mi WNW 13.8 mph - N/A   Mostly Cloudy
11:30 PM 50.0 °F 46.4 °F 87% 29.89 in 6.2 mi WNW 13.8 mph - N/A   Scattered Clouds